Flag for Germany Weather past 2 weeks in Kulmbach, Bavaria, Germany

Now
55 °F

Overcast.


Feels Like: 55 °F
Forecast: 57 / 84 °F
Wind: 1 mph from West

Location: Hof

Current Time: Jun 30, 2015 at 6:16:43 AM

Latest Report: Jun 30, 2015 at 6:00 AM


Visibility: 7 mi

Pressure: 30.18 "Hg

Humidity: 92%

Dew point: 53 °F

Location of KulmbachLocation

Historic Weather in Kulmbach — Graph

°F

Kulmbach temperature yesterday

Maximum temperature yesterday: 74 °F (at 4:00 PM)
Minimum temperature yesterday: 55 °F (at 6:00 AM)
Average temperature yesterday: 64 °F

Past Weeks' High & Low Weather Summary

 TemperatureHumidityPressure
High74 °F (Jun 29, 4:00 PM)100% (Jun 25, 6:00 AM)30.28 "Hg (Jun 25, 6:00 AM)
Low42 °F (Jun 17, 5:00 AM)37% (Jun 17, 6:00 PM)29.67 "Hg (Jun 23, 3:00 AM)
Average55 °F76%30.06 "Hg
* Reported Jun 15 6:00 AM — Jun 30 5:00 AM, Kulmbach, Weather by CustomWeather, © 2015

Note: Actual official high and low records may vary slightly from our data, if they occured in-between our weather recording intervals... More about our weather records

Advertising

Kulmbach weather history for previous 24 hours

 ConditionsComfort  
Time TempWeatherWind HumidityBarometerVisibility
5:00 AM
Tue, Jun 30
56 °FOvercast.1 mph89%30.17 "Hg9 mi
4:00 AM58 °FOvercast.2 mph87%30.16 "Hg11 mi
3:00 AM58 °FOvercast.2 mph87%30.16 "Hg12 mi
2:00 AM58 °FOvercast.1 mph86%30.16 "Hg16 mi
1:00 AM60 °FPassing clouds.1 mph82%30.16 "Hg19 mi
12:00 AM63 °FOvercast.1 mph71%30.15 "Hg19 mi
11:00 PM
Mon, Jun 29
62 °FOvercast.2 mph78%30.15 "Hg22 mi
10:00 PM64 °FOvercast.1 mph67%30.14 "Hg22 mi
9:00 PM65 °FOvercast.2 mph73%30.14 "Hg22 mi
8:00 PM72 °FPartly sunny.1 mph51%30.09 "Hg22 mi
7:00 PM73 °FPartly sunny.1 mph46%30.08 "Hg25 mi
6:00 PM73 °FPartly sunny.2 mph43%30.08 "Hg25 mi
4:00 PM74 °FPartly sunny.3 mph42%30.08 "Hg25 mi
3:00 PM73 °FPassing clouds.3 mph44%30.09 "Hg25 mi
2:00 PM73 °FScattered clouds.2 mph46%30.10 "Hg25 mi
1:00 PM71 °FScattered clouds.2 mph47%30.11 "Hg22 mi
12:00 PM69 °FScattered clouds.3 mph49%30.13 "Hg22 mi
10:00 AM62 °FPartly sunny.2 mph74%30.16 "Hg16 mi
9:00 AM60 °FOvercast.1 mph81%30.17 "Hg16 mi
8:00 AM56 °FLight rain. Overcast.2 mph86%30.18 "Hg12 mi
7:00 AM55 °FLight rain. Overcast.2 mph93%30.18 "Hg16 mi
6:00 AM55 °FOvercast.1 mph89%30.18 "Hg16 mi
Weather by CustomWeather, © 2015

See weather overviewHow to use our weather pages